| Temperature (°F) | Max | Average | Min |
|---|---|---|---|
| Max Temperature | 64 | 58.16 | 37 |
| Avg Temperature | 53.42 | 46.57 | 37 |
| Min Temperature | 52 | 39.09 | 32 |
| Precipitation (in) | Max | Average | Min | Sum |
|---|---|---|---|---|
| Precipitation | 0 | 0 | 0 | 0 |
| Dew Point (°F) | Max | Average | Min |
|---|---|---|---|
| Dew Point | 51.96 | 38.78 | 25.75 |
| Wind (mph) | Max | Average | Min |
|---|---|---|---|
| Wind | 22 | 9.03 | 5 |
| Gust Wind | 37 | 29.22 | 21 |
| Sea Level Pressure (in) | Max | Average | Min |
|---|---|---|---|
| Sea Level Pressure | 30.36 | 29.93 | 29.45 |
| Date | Temp High/Low | Dew Pt High/Low | Humidity | Wind | Max Wind | Wind Gust | Pressure | Precip. | Condition |
|---|---|---|---|---|---|---|---|---|---|
| 12/1/2021 | 61 °F / 36 °F | 46 °F / 28 °F | 65 % | 20 mph | - | 29.81 in | 0 in | ||
| 12/2/2021 | 59 °F / 41 °F | 45 °F / 30 °F | 73 % | 13 mph | - | 29.45 in | 0 in | ||
| 12/3/2021 | 57 °F / 36 °F | 30 °F / 25 °F | 58 % | 9 mph | - | 29.74 in | 0 in | ||
| 12/4/2021 | 61 °F / 36 °F | 48 °F / 27 °F | 67 % | 22 mph | - | 29.74 in | 0 in | ||
| 12/5/2021 | 57 °F / 37 °F | 37 °F / 19 °F | 41 % | 22 mph | - | 29.56 in | 0 in | ||
| 12/6/2021 | 57 °F / 34 °F | 30 °F / 23 °F | 55 % | 8 mph | - | 29.75 in | 0 in | ||
| 12/7/2021 | 59 °F / 32 °F | 43 °F / 25 °F | 69 % | 7 mph | - | 29.83 in | 0 in | ||
| 12/8/2021 | 55 °F / 43 °F | 48 °F / 32 °F | 79 % | 17 mph | - | 29.53 in | 0 in | ||
| 12/9/2021 | 57 °F / 37 °F | 36 °F / 27 °F | 65 % | 8 mph | - | 29.56 in | 0 in | ||
| 12/10/2021 | 57 °F / 36 °F | 41 °F / 27 °F | 72 % | 17 mph | - | 29.51 in | 0 in | ||
| 12/11/2021 | 61 °F / 34 °F | 34 °F / 28 °F | 68 % | 7 mph | - | 29.74 in | 0 in | ||
| 12/12/2021 | 59 °F / 34 °F | 39 °F / 27 °F | 67 % | 7 mph | - | 30.14 in | 0 in | ||
| 12/13/2021 | 59 °F / 34 °F | 48 °F / 27 °F | 73 % | 7 mph | - | 30.24 in | 0 in | ||
| 12/14/2021 | 61 °F / 37 °F | 50 °F / 34 °F | 83 % | 7 mph | - | 30.24 in | 0 in | ||
| 12/15/2021 | 61 °F / 37 °F | 50 °F / 34 °F | 83 % | 6 mph | - | 30.26 in | 0 in | ||
| 12/16/2021 | 64 °F / 39 °F | 45 °F / 34 °F | 74 % | 7 mph | - | 30.31 in | 0 in | ||
| 12/17/2021 | 63 °F / 37 °F | 48 °F / 34 °F | 76 % | 8 mph | - | 30.37 in | 0 in | ||
| 12/18/2021 | 61 °F / 37 °F | 50 °F / 34 °F | 82 % | 7 mph | - | 30.36 in | 0 in | ||
| 12/19/2021 | 59 °F / 36 °F | 41 °F / 32 °F | 77 % | 7 mph | - | 30.23 in | 0 in | ||
| 12/20/2021 | 57 °F / 36 °F | 41 °F / 32 °F | 77 % | 7 mph | - | 30.03 in | 0 in | ||
| 12/21/2021 | 57 °F / 39 °F | 48 °F / 37 °F | 83 % | 6 mph | - | 30.11 in | 0 in | ||
| 12/22/2021 | 57 °F / 43 °F | 43 °F / 39 °F | 77 % | 7 mph | - | 30.16 in | 0 in | ||
| 12/23/2021 | 57 °F / 39 °F | 45 °F / 36 °F | 77 % | 9 mph | - | 30.13 in | 0 in | ||
| 12/24/2021 | 57 °F / 48 °F | 54 °F / 41 °F | 91 % | 5 mph | - | 29.92 in | 0 in | ||
| 12/25/2021 | 57 °F / 52 °F | 54 °F / 50 °F | 95 % | 7 mph | - | 29.7 in | 0 in | ||
| 12/26/2021 | 61 °F / 46 °F | 52 °F / 45 °F | 90 % | 5 mph | - | 29.68 in | 0 in | ||
| 12/27/2021 | 52 °F / 45 °F | 50 °F / 43 °F | 93 % | 6 mph | - | 29.71 in | 0 in | ||
| 12/28/2021 | 59 °F / 43 °F | 50 °F / 41 °F | 89 % | 13 mph | - | 29.72 in | 0 in | ||
| 12/29/2021 | 63 °F / 45 °F | 54 °F / 45 °F | 87 % | 7 mph | - | 29.78 in | 0 in | ||
| 12/30/2021 | 64 °F / 46 °F | 55 °F / 45 °F | 91 % | 8 mph | - | 30.04 in | 0 in | ||
| 12/31/2021 | 55 °F / 41 °F | 54 °F / 41 °F | 93 % | 5 mph | - | 30.25 in | 0 in |